Weather History for Custer, SD

Change the Weather History Date:

Wednesday, October 15, 2014

  Actual Average Record
Temperature  
Mean Temperature 60 °F 43 °F  
Max Temperature 72 °F 55 °F 78 °F (1964)
Min Temperature 48 °F 31 °F 11 °F (1960)
Degree Days  
Heating Degree Days 5 22  
Month to date heating degree days 255 300  
Since 1 July heating degree days 671 786  
Cooling Degree Days 0 0  
Month to date cooling degree days 0 0  
Year to date cooling degree days 152 177  
Growing Degree Days 11 (Base 50)    
Moisture  
Dew Point 28 °F    
Average Humidity 34    
Maximum Humidity 50    
Minimum Humidity 18    
Precipitation  
Precipitation 0.00 in 0.06 in 1.24 in (1980)
Month to date precipitation 0.21 0.89  
Year to date precipitation 19.14 17.38  
Sea Level Pressure  
Sea Level Pressure 29.74 in    
Wind  
Wind Speed 10 mph (WSW)    
Max Wind Speed 17 mph    
Max Gust Speed 27 mph    
Visibility 10 miles    
Events      
T = Trace of Precipitation, MM = Missing Value Source: NWS Daily Summary

Daily Weather History Graph

Daily Weather History Graph

Search for Another Location

Airport:

Trip Planner

Search our weather history database for the weather conditions in past years. The results will help you decide how hot, cold, wet, or windy it might be!

Date:

Astronomy

Oct. 15, 2014 Rise Set
Actual Time 7:08 AM MDT 6:10 PM MDT
Civil Twilight 6:39 AM MDT 6:39 PM MDT
Nautical Twilight 6:06 AM MDT 7:13 PM MDT
Astronomical Twilight 5:33 AM MDT 7:46 PM MDT
Moon No Moon Rise 1:56 PM MDT (10/15)
Length of Visible Light 11h 59m
Length of Day
11h 02m
Waning Gibbous, 51% of the Moon is Illuminated
Oct 15
Waning Gibbous
Oct 15
Last Quarter
Oct 23
New
Oct 30
First Quarter
Nov 6
Full

Hourly Weather History & Observations

Time (MDT) Temp. Dew Point Humidity Pressure Visibility Wind Dir Wind Speed Gust Speed Precip Events Conditions
12:53 AM 52.0 °F 33.1 °F 49% 29.88 in 10.0 mi WSW 6.9 mph - N/A   Clear
1:53 AM 54.0 °F 32.0 °F 43% 29.85 in 10.0 mi WSW 5.8 mph - N/A   Clear
2:53 AM 53.1 °F 30.0 °F 41% 29.85 in 10.0 mi SW 5.8 mph - N/A   Clear
3:53 AM 50.0 °F 30.0 °F 46% 29.85 in 10.0 mi WSW 9.2 mph - N/A   Clear
4:53 AM 50.0 °F 28.9 °F 44% 29.83 in 10.0 mi WSW 5.8 mph - N/A   Clear
5:53 AM 52.0 °F 28.9 °F 41% 29.82 in 10.0 mi WSW 8.1 mph - N/A   Clear
6:53 AM 52.0 °F 28.9 °F 41% 29.83 in 10.0 mi West 9.2 mph - N/A   Clear
7:53 AM 55.9 °F 28.0 °F 34% 29.82 in 10.0 mi West 6.9 mph - N/A   Clear
8:53 AM 61.0 °F 27.0 °F 27% 29.82 in 10.0 mi West 8.1 mph - N/A   Clear
9:53 AM 64.9 °F 26.1 °F 23% 29.81 in 10.0 mi WSW 8.1 mph - N/A   Clear
10:53 AM 69.1 °F 25.0 °F 19% 29.79 in 10.0 mi West 11.5 mph 17.3 mph N/A   Clear
11:53 AM 69.1 °F 24.1 °F 18% 29.76 in 10.0 mi WSW 12.7 mph 23.0 mph N/A   Clear
12:53 PM 66.9 °F 24.1 °F 20% 29.74 in - WSW 13.8 mph 27.6 mph N/A   Clear
1:53 PM 70.0 °F 26.1 °F 19% 29.70 in 10.0 mi WSW 9.2 mph 27.6 mph N/A   Clear
2:53 PM 72.0 °F 28.0 °F 20% 29.67 in 10.0 mi SW 12.7 mph 24.2 mph N/A   Clear
3:53 PM 70.0 °F 30.0 °F 23% 29.68 in 10.0 mi SW 11.5 mph 20.7 mph N/A   Clear
4:53 PM 69.1 °F 28.0 °F 22% 29.66 in 10.0 mi WSW 8.1 mph - N/A   Clear
5:53 PM 64.9 °F 30.0 °F 27% 29.65 in 10.0 mi SW 6.9 mph - N/A   Clear
6:53 PM 64.0 °F 28.9 °F 27% 29.66 in 10.0 mi SW 6.9 mph - N/A   Clear
7:53 PM 61.0 °F 28.9 °F 30% 29.66 in 10.0 mi WSW 8.1 mph - N/A   Clear
8:53 PM 64.9 °F 26.1 °F 23% 29.63 in 10.0 mi WSW 15.0 mph 26.5 mph N/A   Clear
9:53 PM 62.1 °F 26.1 °F 25% 29.63 in 10.0 mi WSW 12.7 mph 20.7 mph N/A   Clear
10:53 PM 61.0 °F 26.1 °F 26% 29.64 in 10.0 mi West 12.7 mph - N/A   Clear
11:53 PM 60.1 °F 25.0 °F 26% 29.63 in 10.0 mi West 13.8 mph 21.9 mph N/A   Clear